Hourly Weather Innsbruck

Today, 13 July, Monday

Time Temperature Precipitation Wind Pressure Humidity
00:00 +4°C° 0 mm 1 mps 599 mmHg 92%
01:00 +4°C° 0 mm 1 mps 599 mmHg 90%
02:00 +3°C° 0 mm 1 mps 599 mmHg 90%
03:00 +3°C° 0 mm 1 mps 599 mmHg 91%
04:00 +2°C° 0 mm 0 mps 598 mmHg 91%
05:00 +4°C° 0 mm 0 mps 599 mmHg 84%
06:00 +6°C° 0 mm 0 mps 600 mmHg 77%
07:00 +9°C° 0 mm 0 mps 602 mmHg 68%
08:00 +11°C° 0 mm 1 mps 602 mmHg 61%
09:00 +13°C° 0 mm 1 mps 602 mmHg 54%
10:00 +14°C° 0 mm 2 mps 603 mmHg 47%
11:00 +15°C° 0 mm 2 mps 603 mmHg 44%
12:00 +16°C° 0 mm 2 mps 603 mmHg 41%
13:00 +17°C° 0 mm 2 mps 604 mmHg 37%
14:00 +16°C° 0 mm 3 mps 603 mmHg 40%
15:00 +16°C° 0 mm 3 mps 602 mmHg 43%
16:00 +16°C° 0 mm 3 mps 602 mmHg 45%
17:00 +14°C° 0.1 mm 2 mps 601 mmHg 55%
18:00 +13°C° 0.1 mm 2 mps 601 mmHg 65%
19:00 +10°C° 0.1 mm 2 mps 600 mmHg 75%
20:00 +9°C° 0 mm 1 mps 599 mmHg 82%
21:00 +7°C° 0 mm 1 mps 598 mmHg 88%
22:00 +4°C° 0 mm 0 mps 597 mmHg 95%
23:00 +4°C° 0 mm 0 mps 597 mmHg 95%

Tomorrow, 14 July, Tuesday

Time Temperature Precipitation Wind Pressure Humidity
00:00 +4°C° 0 mm 0 mps 597 mmHg 95%
01:00 +4°C° 0 mm 0 mps 597 mmHg 95%
02:00 +4°C° 0 mm 0 mps 597 mmHg 95%
03:00 +4°C° 0 mm 0 mps 596 mmHg 95%
04:00 +4°C° 0 mm 0 mps 596 mmHg 95%
05:00 +5°C° 0 mm 0 mps 597 mmHg 91%
06:00 +7°C° 0 mm 0 mps 597 mmHg 86%
07:00 +8°C° 0 mm 0 mps 598 mmHg 81%
08:00 +10°C° 0.2 mm 0 mps 598 mmHg 75%
09:00 +12°C° 0.2 mm 1 mps 599 mmHg 69%
10:00 +13°C° 0.2 mm 1 mps 599 mmHg 63%
11:00 +13°C° 0.6 mm 1 mps 599 mmHg 63%
12:00 +14°C° 0.6 mm 1 mps 599 mmHg 63%
13:00 +14°C° 0.6 mm 1 mps 599 mmHg 63%
14:00 +13°C° 1.1 mm 1 mps 598 mmHg 68%
15:00 +13°C° 1.1 mm 1 mps 598 mmHg 73%
16:00 +12°C° 1.1 mm 1 mps 597 mmHg 78%
17:00 +11°C° 1 mm 1 mps 597 mmHg 83%
18:00 +10°C° 1 mm 1 mps 597 mmHg 87%
19:00 +10°C° 1 mm 1 mps 597 mmHg 91%
20:00 +9°C° 0.7 mm 1 mps 596 mmHg 92%
21:00 +8°C° 0.7 mm 1 mps 596 mmHg 93%
22:00 +6°C° 0.7 mm 0 mps 596 mmHg 94%
23:00 +6°C° 0.2 mm 0 mps 596 mmHg 94%

Day after tomorrow, 15 July, Wednesday

Time Temperature Precipitation Wind Pressure Humidity
00:00 +5°C° 0.2 mm 0 mps 596 mmHg 94%
01:00 +6°C° 0.2 mm 1 mps 595 mmHg 94%
02:00 +5°C° 0 mm 0 mps 595 mmHg 94%
03:00 +5°C° 0 mm 0 mps 595 mmHg 94%
04:00 +4°C° 0 mm 0 mps 595 mmHg 94%
05:00 +6°C° 0 mm 0 mps 595 mmHg 92%
06:00 +7°C° 0 mm 0 mps 596 mmHg 89%
07:00 +8°C° 0 mm 0 mps 597 mmHg 87%
08:00 +9°C° 0.4 mm 0 mps 597 mmHg 84%
09:00 +11°C° 0.4 mm 1 mps 597 mmHg 81%
10:00 +12°C° 0.4 mm 1 mps 598 mmHg 78%
11:00 +12°C° 1.2 mm 1 mps 598 mmHg 80%
12:00 +12°C° 1.2 mm 1 mps 598 mmHg 82%
13:00 +12°C° 1.2 mm 1 mps 598 mmHg 84%
14:00 +11°C° 1.8 mm 1 mps 597 mmHg 87%
15:00 +10°C° 1.8 mm 1 mps 597 mmHg 90%
16:00 +9°C° 1.8 mm 1 mps 597 mmHg 93%
17:00 +9°C° 1.3 mm 1 mps 597 mmHg 93%
18:00 +8°C° 1.3 mm 1 mps 597 mmHg 94%
19:00 +7°C° 1.3 mm 0 mps 597 mmHg 94%
20:00 +7°C° 0.3 mm 0 mps 597 mmHg 95%
21:00 +6°C° 0.3 mm 0 mps 597 mmHg 96%
22:00 +7°C° 0.3 mm 1 mps 597 mmHg 97%
23:00 +6°C° 0.1 mm 0 mps 597 mmHg 97%

16 July, Thursday

Time Temperature Precipitation Wind Pressure Humidity
00:00 +6°C° 0.1 mm 0 mps 597 mmHg 97%
01:00 +6°C° 0.1 mm 0 mps 597 mmHg 97%
02:00 +5°C° 0 mm 0 mps 597 mmHg 97%
03:00 +5°C° 0 mm 0 mps 596 mmHg 97%
04:00 +5°C° 0 mm 0 mps 596 mmHg 98%
05:00 +6°C° 0.1 mm 1 mps 596 mmHg 97%
06:00 +7°C° 0.1 mm 1 mps 597 mmHg 96%
07:00 +7°C° 0.1 mm 1 mps 597 mmHg 96%
08:00 +8°C° 0.3 mm 1 mps 597 mmHg 94%
09:00 +9°C° 0.3 mm 1 mps 598 mmHg 91%
10:00 +9°C° 0.3 mm 1 mps 598 mmHg 89%
11:00 +10°C° 0.4 mm 1 mps 599 mmHg 86%
12:00 +10°C° 0.4 mm 2 mps 599 mmHg 84%
13:00 +10°C° 0.4 mm 2 mps 599 mmHg 81%
14:00 +10°C° 0.4 mm 2 mps 599 mmHg 82%
15:00 +10°C° 0.4 mm 2 mps 599 mmHg 84%
16:00 +9°C° 0.4 mm 2 mps 598 mmHg 86%
17:00 +9°C° 0.2 mm 2 mps 598 mmHg 89%
18:00 +8°C° 0.2 mm 2 mps 598 mmHg 91%
19:00 +7°C° 0.2 mm 2 mps 598 mmHg 94%
20:00 +7°C° 0 mm 2 mps 598 mmHg 95%
21:00 +7°C° 0 mm 1 mps 598 mmHg 95%
22:00 +7°C° 0 mm 1 mps 598 mmHg 96%
23:00 +7°C° 0 mm 1 mps 598 mmHg 96%

17 July, Friday

Time Temperature Precipitation Wind Pressure Humidity
00:00 +7°C° 0 mm 1 mps 598 mmHg 97%
01:00 +6°C° 0 mm 1 mps 598 mmHg 97%
02:00 +6°C° 0.1 mm 1 mps 598 mmHg 97%
03:00 +6°C° 0.1 mm 1 mps 597 mmHg 97%
04:00 +6°C° 0.1 mm 1 mps 597 mmHg 97%
05:00 +6°C° 0 mm 1 mps 597 mmHg 96%
06:00 +7°C° 0 mm 1 mps 598 mmHg 94%
07:00 +7°C° 0 mm 1 mps 598 mmHg 93%
08:00 +8°C° 0.1 mm 1 mps 598 mmHg 88%
09:00 +9°C° 0.1 mm 1 mps 599 mmHg 83%
10:00 +9°C° 0.1 mm 2 mps 600 mmHg 77%
11:00 +10°C° 0.3 mm 2 mps 600 mmHg 73%
12:00 +12°C° 0.3 mm 2 mps 600 mmHg 69%
13:00 +13°C° 0.3 mm 2 mps 600 mmHg 65%
14:00 +13°C° 0.2 mm 2 mps 600 mmHg 66%
15:00 +13°C° 0.2 mm 2 mps 600 mmHg 66%
16:00 +12°C° 0.2 mm 3 mps 600 mmHg 66%
17:00 +12°C° 0.1 mm 2 mps 600 mmHg 71%
18:00 +10°C° 0.1 mm 2 mps 599 mmHg 77%
19:00 +9°C° 0.1 mm 2 mps 599 mmHg 82%
20:00 +9°C° 0.1 mm 1 mps 599 mmHg 86%
21:00 +7°C° 0.1 mm 1 mps 598 mmHg 91%
22:00 +6°C° 0.1 mm 1 mps 598 mmHg 95%
23:00 +5°C° 0 mm 1 mps 598 mmHg 95%

18 July, Saturday

Time Temperature Precipitation Wind Pressure Humidity
00:00 +5°C° 0 mm 1 mps 597 mmHg 96%
01:00 +5°C° 0 mm 1 mps 597 mmHg 96%
02:00 +4°C° 0 mm 1 mps 597 mmHg 95%
03:00 +4°C° 0 mm 1 mps 597 mmHg 95%
04:00 +4°C° 0 mm 1 mps 597 mmHg 95%
05:00 +5°C° 0 mm 1 mps 597 mmHg 91%
06:00 +7°C° 0 mm 1 mps 598 mmHg 87%
07:00 +9°C° 0 mm 1 mps 599 mmHg 83%
08:00 +11°C° 0 mm 1 mps 600 mmHg 74%
09:00 +13°C° 0 mm 1 mps 600 mmHg 65%
10:00 +15°C° 0 mm 2 mps 601 mmHg 56%
11:00 +15°C° 0 mm 2 mps 601 mmHg 54%
12:00 +16°C° 0 mm 2 mps 601 mmHg 52%
13:00 +16°C° 0 mm 2 mps 601 mmHg 50%
14:00 +16°C° 0.1 mm 2 mps 601 mmHg 53%
15:00 +16°C° 0.1 mm 2 mps 601 mmHg 56%
16:00 +16°C° 0.1 mm 2 mps 600 mmHg 59%
17:00 +14°C° 0.2 mm 2 mps 600 mmHg 68%
18:00 +13°C° 0.2 mm 2 mps 599 mmHg 77%
19:00 +12°C° 0.2 mm 2 mps 599 mmHg 85%
20:00 +10°C° 0 mm 1 mps 599 mmHg 89%
21:00 +9°C° 0 mm 1 mps 598 mmHg 93%
22:00 +7°C° 0 mm 1 mps 598 mmHg 97%
23:00 +7°C° 0 mm 1 mps 598 mmHg 97%
Show more